Location: Unspecified
(0.0000°N, 0.0000°E)
Time: 18:25:56
(UTC+00:00)

STARLINK 1028 - Pass Details

Date: 19 January 2020
Orbit: 348 x 351 km, 53.0° (Epoch: 18 January)

Event Time Altitude Azimuth Distance (km) Brightness Sun altitude
Exits shadow 04:43:42 29° 41° (NE) 668 4.2 -20.3°
Drops below altitude 10° 04:45:16 10° 37° (NE) 1,294 5.7 -19.9°
Sets 04:47:16 0° 36° (NE) 2,132 6.8 -19.4°
